Weather History for Charlevoix, MI

Change the Weather History Date:

Wednesday, November 21, 2012

  Actual Average Record
Temperature  
Mean Temperature 50 °F -  
Max Temperature 54 °F 36 °F 54 °F (2012)
Min Temperature 45 °F 31 °F 23 °F (2008)
Degree Days  
Heating Degree Days 16    
Moisture  
Dew Point 42 °F    
Average Humidity 76    
Maximum Humidity 94    
Minimum Humidity 56    
Precipitation  
Precipitation 0.00 in - - ()
Sea Level Pressure  
Sea Level Pressure 30.11 in    
Wind  
Wind Speed 5 mph (South)    
Max Wind Speed 16 mph    
Max Gust Speed 22 mph    
Visibility 7 miles    
Events      
Averages and records for this station are not official NWS values.
T = Trace of Precipitation, MM = Missing Value Source: NWS Daily Summary

Daily Weather History Graph

Daily Weather History Graph

Search for Another Location

Airport:

Trip Planner

Search our weather history database for the weather conditions in past years. The results will help you decide how hot, cold, wet, or windy it might be!

Date:

Astronomy

Nov. 21, 2012 Rise Set
Actual Time 7:48 AM EST 5:05 PM EST
Civil Twilight 7:15 AM EST 5:38 PM EST
Nautical Twilight 6:39 AM EST 6:14 PM EST
Astronomical Twilight 6:04 AM EST 6:49 PM EST
Moon 1:37 PM EST (11/21) 12:49 AM EST (11/21)
Length of Visible Light 10h 22m
Length of Day
9h 17m
First Quarter, 61% of the Moon is Illuminated
Nov 21
First Quarter
Nov 28
Full
Dec 6
Last Quarter
Dec 13
New
Dec 20
First Quarter

Hourly Weather History & Observations

Time (EST) Temp. Windchill Dew Point Humidity Pressure Visibility Wind Dir Wind Speed Gust Speed Precip Events Conditions
12:14 AM 46.2 °F 45.0 °F 43.9 °F 92% 30.17 in 4.0 mi SSE 3.5 mph - N/A   Overcast
12:35 AM 46.4 °F 45.2 °F 43.7 °F 90% 30.17 in 5.0 mi South 3.5 mph - N/A   Overcast
12:54 AM 46.2 °F - 43.7 °F 91% 30.17 in 5.0 mi Calm Calm - N/A   Overcast
1:15 AM 46.0 °F - 43.9 °F 92% 30.17 in 4.0 mi Calm Calm - N/A   Overcast
1:34 AM 45.9 °F - 43.9 °F 93% 30.17 in 4.0 mi Calm Calm - N/A   Overcast
1:55 AM 46.0 °F - 44.1 °F 93% 30.18 in 4.0 mi Calm Calm - N/A   Overcast
2:14 AM 45.9 °F 44.6 °F 44.1 °F 93% 30.17 in 4.0 mi South 3.5 mph - N/A   Overcast
2:34 AM 45.7 °F - 43.9 °F 93% 30.17 in 4.0 mi Calm Calm - N/A   Overcast
2:54 AM 45.7 °F - 43.9 °F 93% 30.17 in 4.0 mi Calm Calm - N/A   Overcast
3:15 AM 45.5 °F 44.2 °F 43.9 °F 94% 30.18 in 4.0 mi SSW 3.5 mph - N/A   Overcast
3:35 AM 45.9 °F 44.6 °F 43.9 °F 93% 30.17 in 4.0 mi South 3.5 mph - N/A   Overcast
3:54 AM 45.9 °F - 43.9 °F 93% 30.17 in 4.0 mi Calm Calm - N/A   Overcast
4:15 AM 45.9 °F - 43.9 °F 93% 30.17 in 4.0 mi Calm Calm - N/A   Overcast
4:34 AM 46.0 °F 44.8 °F 44.1 °F 93% 30.18 in 4.0 mi SSW 3.5 mph - N/A   Overcast
4:55 AM 46.0 °F - 44.2 °F 93% 30.18 in 4.0 mi Calm Calm - N/A   Overcast
5:15 AM 45.9 °F 44.6 °F 44.1 °F 93% 30.18 in 4.0 mi SSW 3.5 mph - N/A   Overcast
5:35 AM 45.9 °F - 44.1 °F 93% 30.18 in 4.0 mi Calm Calm - N/A   Overcast
5:54 AM 46.0 °F - 43.9 °F 92% 30.18 in 4.0 mi Calm Calm - N/A   Overcast
6:15 AM 45.9 °F - 43.3 °F 91% 30.18 in 5.0 mi Calm Calm - N/A   Overcast
6:34 AM 46.0 °F 43.9 °F 42.8 °F 88% 30.19 in 7.0 mi SW 4.6 mph - N/A   Overcast
6:54 AM 46.2 °F 44.1 °F 41.9 °F 85% 30.19 in 7.0 mi SW 4.6 mph - N/A   Overcast
7:15 AM 46.0 °F 43.1 °F 41.9 °F 85% 30.19 in 7.0 mi SW 5.8 mph - N/A   Overcast
7:34 AM 46.2 °F 44.1 °F 41.9 °F 85% 30.19 in 7.0 mi SW 4.6 mph - N/A   Overcast
7:55 AM 46.0 °F 44.8 °F 41.5 °F 84% 30.20 in 7.0 mi SSW 3.5 mph - N/A   Overcast
8:15 AM 46.0 °F 43.9 °F 41.9 °F 85% 30.19 in 5.0 mi South 4.6 mph - N/A   Overcast
8:35 AM 46.4 °F 44.3 °F 41.9 °F 84% 30.20 in 5.0 mi South 4.6 mph - N/A   Overcast
8:54 AM 46.4 °F 44.3 °F 42.1 °F 85% 30.20 in 5.0 mi South 4.6 mph - N/A   Overcast
9:15 AM 46.6 °F - 41.9 °F 84% 30.19 in 5.0 mi South 4.6 mph - N/A   Haze
9:35 AM 46.8 °F - 41.9 °F 83% 30.19 in 5.0 mi South 8.1 mph - N/A   Haze
9:55 AM 47.7 °F - 42.1 °F 81% 30.19 in 4.0 mi South 5.8 mph - N/A   Haze
10:15 AM 48.6 °F - 42.6 °F 80% 30.17 in 4.0 mi South 8.1 mph - N/A   Haze
10:35 AM 49.3 °F - 42.8 °F 78% 30.17 in 4.0 mi South 5.8 mph - N/A   Haze
10:55 AM 50.4 °F - 43.0 °F 76% 30.18 in 4.0 mi South 8.1 mph - N/A   Haze
11:15 AM 51.4 °F - 43.0 °F 73% 30.18 in 4.0 mi South 10.4 mph 17.3 mph N/A   Haze
11:35 AM 52.0 °F - 43.2 °F 72% 30.17 in 5.0 mi SSW 9.2 mph 16.1 mph N/A   Haze
11:55 AM 52.7 °F - 42.8 °F 69% 30.15 in 5.0 mi SSW 12.7 mph - N/A   Haze
12:15 PM 53.1 °F - 42.8 °F 68% 30.14 in 5.0 mi South 11.5 mph - N/A   Haze
12:35 PM 52.9 °F - 42.8 °F 69% 30.14 in 5.0 mi SSW 10.4 mph - N/A   Haze
12:55 PM 53.6 °F - 43.0 °F 67% 30.13 in 5.0 mi SSW 12.7 mph 18.4 mph N/A   Haze
1:15 PM 53.1 °F - 42.8 °F 68% 30.13 in 7.0 mi SSW 11.5 mph - N/A   Clear
1:35 PM 53.1 °F - 43.0 °F 69% 30.12 in 7.0 mi SSW 12.7 mph 18.4 mph N/A   Clear
1:55 PM 53.1 °F - 43.2 °F 69% 30.11 in 7.0 mi SSW 9.2 mph - N/A   Clear
2:15 PM 53.6 °F - 43.0 °F 67% 30.09 in 7.0 mi South 12.7 mph 19.6 mph N/A   Clear
2:35 PM 54.0 °F - 43.2 °F 67% 30.09 in 7.0 mi South 10.4 mph 17.3 mph N/A   Clear
2:55 PM 53.8 °F - 43.0 °F 67% 30.07 in 7.0 mi South 8.1 mph 18.4 mph N/A   Clear
3:15 PM 53.6 °F - 42.6 °F 66% 30.07 in 10.0 mi South 8.1 mph 17.3 mph N/A   Clear
3:35 PM 53.6 °F - 42.4 °F 66% 30.07 in 10.0 mi SSW 9.2 mph 16.1 mph N/A   Clear
3:54 PM 53.4 °F - 42.3 °F 66% 30.06 in 10.0 mi South 8.1 mph - N/A   Clear
4:15 PM 53.1 °F - 42.1 °F 66% 30.06 in 10.0 mi South 9.2 mph - N/A   Clear
4:35 PM 52.7 °F - 42.1 °F 67% 30.05 in 10.0 mi South 8.1 mph - N/A   Clear
4:55 PM 52.5 °F - 42.1 °F 68% 30.05 in 10.0 mi South 8.1 mph - N/A   Clear
5:15 PM 52.3 °F - 42.1 °F 68% 30.04 in 10.0 mi SSE 9.2 mph - N/A   Clear
5:35 PM 52.2 °F - 42.1 °F 69% 30.04 in 10.0 mi South 9.2 mph - N/A   Clear
5:55 PM 51.8 °F - 41.9 °F 69% 30.04 in 10.0 mi South 10.4 mph - N/A   Clear
6:14 PM 51.6 °F - 41.9 °F 69% 30.03 in 10.0 mi South 11.5 mph - N/A   Clear
6:35 PM 51.1 °F - 41.4 °F 69% 30.02 in 10.0 mi South 11.5 mph 17.3 mph N/A   Clear
6:55 PM 50.9 °F - 41.4 °F 70% 30.02 in 10.0 mi South 13.8 mph 17.3 mph N/A   Clear
7:15 PM 50.9 °F - 40.1 °F 67% 30.01 in 10.0 mi South 13.8 mph 19.6 mph N/A   Clear
7:35 PM 50.9 °F - 39.4 °F 65% 30.00 in 10.0 mi South 16.1 mph 21.9 mph N/A   Clear
7:55 PM 50.4 °F - 39.6 °F 66% 30.00 in 10.0 mi South 13.8 mph 18.4 mph N/A   Clear
8:15 PM 50.5 °F - 37.2 °F 60% 30.01 in 10.0 mi South 8.1 mph 17.3 mph N/A   Clear
8:34 PM 50.9 °F - 35.6 °F 56% 30.01 in 10.0 mi South 6.9 mph - N/A   Clear
8:55 PM 50.5 °F - 35.4 °F 56% 30.01 in 10.0 mi SSW 10.4 mph 17.3 mph N/A   Clear
9:14 PM 50.2 °F - 35.6 °F 57% 30.01 in 10.0 mi SSW 10.4 mph 18.4 mph N/A   Clear
9:35 PM 49.3 °F - 36.1 °F 61% 30.01 in 10.0 mi SSW 5.8 mph - N/A   Clear
9:54 PM 49.1 °F - 36.5 °F 62% 30.01 in 10.0 mi SSW 8.1 mph - N/A   Clear
10:15 PM 49.1 °F - 36.5 °F 62% 30.01 in 10.0 mi South 8.1 mph - N/A   Clear
10:35 PM 48.7 °F - 36.5 °F 63% 30.00 in 10.0 mi SSW 9.2 mph - N/A   Clear
10:55 PM 49.3 °F - 36.5 °F 61% 30.00 in 10.0 mi SSW 11.5 mph - N/A   Clear
11:15 PM 49.3 °F - 36.9 °F 62% 30.00 in 10.0 mi SSW 13.8 mph 18.4 mph N/A   Clear
11:34 PM 49.3 °F - 37.4 °F 64% 29.99 in 10.0 mi SSW 12.7 mph 19.6 mph N/A   Clear
11:55 PM 49.3 °F - 37.9 °F 65% 29.99 in 10.0 mi SSW 13.8 mph 20.7 mph N/A   Clear